Showing default

YAOGAN-31 J, 47695

Orbit data source: Space-Track

YAOGAN-31 J, 47695 is a payload satellite owned by PLA SSF (CN) in LEO that was launched on Wed, 24 Feb 2021 UTC via a CHANG ZHENG 4C launch vehicle from the Jiuquan Satellite Launch Center, China (JSC). Payload-class satellites include a variety of spacecraft equipped with specific instruments for various scientific and technological missions. These include communications satellites like Starlink; space stations such as the ISS; scientific satellites like the Hubble; Earth observation satellites from companies like Planet Labs, Umbra, and HawkEye 360; GPS; miniature CubeSats for education and research; and military/defense satellites.

Loading next visibility...
Identifier
47695, 2021-014E
Orbit
LEO
Country
Flag of CNCN / PRC
Related business
Manufacturer
DFH
Mission
Operational Defense Sigint
Bus & Motor
Unknown
Mass
~500 kg wet, ~500 kg dry
Launch date (UTC)
2021-02-24 (5 years ago)
Launch vehicle
CHANG ZHENG 4C
Launch site
Jiuquan Satellite Launch Center, China (JSC)
Object type
Payload
Rocket body
Debris
Shape & HBR
Box + 2 Pan, 0.5 m
Radar Cross Section
0.446 m², Large (>1 m²)

Expand to show TLE details & history
Last TLE update: 21 hours ago

TLE from 21 hours ago
0 YAOGAN-31 J
1 47695U 21014E   26172.55091292 -.00000104  00000-0 -20577-4 0  9992
2 47695  63.4004 186.4840 0177614   0.8907 359.2401 13.45448840261319
Epoch: 2026-06-21T13:13Z
TLE epoch observation values (Epoch: 2026-06-21T13:13:18.876Z)
Latitude
-0.0001°
Longitude
78.40574°
Altitude
958.188 km
Speed
7.438 km/s
True Right ascension
12h 25m 56s
True Declination
0° 00' 00"
Sunlit
Object was in daylight at epoch
Visualization orbit readout
Latitude
Unknown
Longitude
Unknown
Altitude
Unknown
Speed
Unknown
Apparent Right ascension
Unknown
Apparent Declination
Unknown
Sunlit
N/A
Visualization observer readout
Local Sidereal Time
21:33:13
Azimuth
Unknown
Elevation
Unknown
Doppler factor
Unknown
Orbital elements
Apogee altitude
1,220.486 km
Perigee altitude
955.272 km
Semi-major axis
7,466.016 km
Eccentricity
0.01776
Inclination
63.4004°
RAAN
186.484°
Arg. of periapsis
0.8907°
True anomaly
359.21249°
Mean anomaly
359.2401°
Eccentric anomaly
359.22636°
Mean motion
3.36442 °/min
Orbital period
107 mins
BSTAR
-0.000020577
Loading maneuver chart data...
Computing Atmospheric mass density...
Loading historical data...
Loading historical data...
Loading historical data...
Loading historical data...
Loading historical data...
Loading historical data...
Loading historical data...

Documentation

Showing up to 5 results
|